SCP
0 0 0 0 0 0 0 0 0 0 0 0 0 0 0 0 0 0 0 0 0 0 0 0 0 0 0 0 0 0 0 0 0 0 0 0 0 0 0 0 0 0 0
0 0 0 0 0 0 0 0 0 0 0 0 0 0 0 0 0 0 0 0 0 0 0 0 0 0 0 0 0 0 0 0 0 0 0 0 0 0 0 0 0 0 0
0 0 0 0 0 0 0 0 0 0 0 0 0 0 0 0 0 0 0 0 0 0 0 0 0 0 0 0 0 0 0 0 0 0 0 0 0 0 0 0 0 0 0
0 0 0 0 0 0 0 0 0 0 0 0 0 0 0 0 0 0 0 0 0 0 0 0 0 0 0 0 0 0 0 0 0 0 0 0 0 0 0 0 0 0 0
0 0 0 0 0 0 0 0 0 0 0 0 0 0 0 0 0 0 0 0 0 0 0 0 0 0 0 0 0 0 0 0 0 0 0 0 0 0 0 0 0 0 0
0 0 0 0 0 0 0 0 0 0 0 0 0 0 0 0 0 0 0 0 0 0 0 0 0 0 0 0 0 0 0 0 0 0 0 0 0 0 0 0 0 0 0
0 0 0 0 0 0 0 0 0 0 0 0 0 0 0 0 0 0 0 0 0 0 0 0 0 0 0 0 0 0 0 0 0 0 0 0 0 0 0 0 0 0 0
0 0 0 0 0 0 0 0 0 0 0 0 0 0 0 0 0 0 0 0 0 0 0 0 0 0 0 0 0 0 0 0 0 0 0 0 0 0 0 0 0 0 0
0 0 0 0 0 0 0 0 0 0 0 0 0 0 0 0 0 0 0 0 0 0 0 0 0 0 0 0 0 0 0 0 0 0 0 0 0 0 0 0 0 0 0
0 0 0 0 0 0 0 0 0 0 0 0 0 0 0 0 0 0 0 0 0 0 0 0 0 0 0 0 0 0 0 0 0 0 0 0 0 0 0 0 0 0 0
0 0 0 0 0 0 0 0 0 0 0 0 0 0 0 0 0 0 0 0 0 0 0 0 0 0 0 0 0 0 0 0 0 0 0 0 0 0 0 0 0 0 0
0 0 0 0 0 0 0 0 0 0 0 0 0 0 0 0 0 0 0 0 0 0 0 0 0 0 0 0 0 0 0 0 0 0 0 0 0 0 0 0 0 0 0
0 0 0 0 0 0 0 0 0 0 0 0 0 0 0 0 0 0 0 0 0 0 0 0 0 0 0 0 0 0 0 0 0 0 0 0 0 0 0 0 0 0 0
0 0 0 0 0 0 0 0 0 0 0 0 0 0 0 0 0 0 0 0 0 0 0 0 0 0 0 0 0 0 0 0 0 0 0 0 0 0 0 0 0 0 0
0 0 0 0 0 0 0 0 0 0 0 0 0 0 0 0 0 0 0 0 0 0 0 0 0 0 0 0 0 0 0 0 0 0 0 0 0 0 0 0 0 0 0
0 0 0 0 0 0 0 0 0 0 0 0 0 0 0 0 0 0 0 0 0 0 0 0 0 0 0 0 0 0 0 0 0 0 0 0 0 0 0 0 0 0 0
0 0 0 0 0 0 0 0 0 0 0 0 0 0 0 0 0 0 0 0 0 0 0 0 0 0 0 0 0 0 0 0 0 0 0 0 0 0 0 0 0 0 0
0 0 0 0 0 0 0 0 0 0 0 0 0 0 0 0 0 0 0 0 0 0 0 0 0 0 0 0 0 0 0 0 0 0 0 0 0 0 0 0 0 0 0
0 0 0 0 0 0 0 0 0 0 0 0 0 0 0 0 0 0 0 0 0 0 0 0 0 0 0 0 0 0 0 0 0 0 0 0 0 0 0 0 0 0 0
0 0 0 0 0 0 0 0 0 0 0 0 0 0 0 0 0 0 0 0 0 0 0 0 0 0 0 0 0 0 0 0 0 0 0 0 0 0 0 0 0 0 0
0 0 0 0 0 0 0 0 0 0 0 0 0 0 0 0 0 0 0 0 0 0 0 0 0 0 0 0 0 0 0 0 0 0 0 0 0 0 0 0 0 0 0
0 0 0 0 0 0 0 0 0 0 0 0 0 0 0 0 0 0 0 0 0 0 0 0 0 0 0 0 0 0 0 0 0 0 0 0 0 0 0 0 0 0 0
0 0 0 0 0 0 0 0 0 0 0 0 0 0 0 0 0 0 0 0 0 0 0 0 0 0 0 0 0 0 0 0 0 0 0 0 0 0 0 0 0 0 0
0 0 0 0 0 0 0 0 0 0 0 0 0 0 0 0 0 0 0 0 0 0 0 0 0 0 0 0 0 0 0 0 0 0 0 0 0 0 0 0 0 0 0
0 0 0 0 0 0 0 0 0 0 0 0 0 0 0 0 0 0 0 0 0 0 0 0 0 0 0 0 0 0 0 0 0 0 0 0 0 0 0 0 0 0 0
0 0 0 0 0 0 0 0 0 0 0 0 0 0 0 0 0 0 0 0 0 0 0 0 0 0 0 0 0 0 0 0 0 0 0 0 0 0 0 0 0 0 0
Wind_Speed
4 3 2 2 2 2 2 2 2 2 2 3 2 3 2 2 1 1 2 5 5 4 4 5 6 6 7 8 9 10 10 10 10 10 11 11 12 12 12 12 13 13 14
4 4 3 3 3 2 2 2 2 2 2 2 2 2 2 2 1 1 1 3 5 5 4 4 4 5 6 7 8 8 8 9 9 9 9 10 10 10 11 12 12 13 13
6 5 4 4 3 3 3 2 2 2 2 1 2 2 2 2 2 1 1 1 2 5 4 4 3 4 5 6 7 7 7 7 7 7 8 8 9 9 10 10 11 11 12
7 6 5 4 4 3 3 3 2 2 2 2 1 1 1 1 2 2 1 1 1 2 3 4 4 3 4 5 6 6 6 6 6 6 6 7 7 8 8 9 9 10 11
8 6 5 5 5 4 3 3 2 2 2 2 2 1 1 2 2 2 2 2 2 1 1 3 4 3 3 4 5 6 5 5 5 5 5 5 5 6 7 7 8 9 9
9 7 6 6 6 4 4 4 4 3 2 3 2 1 1 2 2 2 3 2 2 2 2 2 2 2 2 3 4 5 5 5 5 4 4 4 4 4 5 5 6 7 8
10 9 7 7 7 6 6 6 4 4 3 3 2 0 0 1 3 3 3 3 3 3 3 2 2 1 0 2 4 6 6 6 5 5 4 3 3 3 3 4 5 6 7
11 10 10 8 8 7 7 7 6 4 3 4 4 2 2 2 3 4 4 4 5 4 4 4 3 3 2 1 3 7 7 7 7 6 5 4 3 3 2 3 3 4 5
12 11 12 10 9 9 8 9 9 8 6 5 4 5 4 5 2 2 4 5 5 5 5 4 5 5 4 3 3 6 8 8 8 7 7 6 5 4 3 2 2 2 4
12 13 12 12 11 9 10 10 10 8 7 6 5 5 4 4 4 3 3 4 6 7 7 6 7 6 6 5 6 9 10 10 9 9 8 7 6 5 4 3 1 1 2
13 13 13 12 12 11 11 10 10 11 9 8 7 4 5 4 4 4 4 4 4 7 8 8 7 7 7 7 6 9 12 12 11 10 9 8 7 6 5 4 3 1 1
10 14 13 13 13 12 12 12 11 12 11 10 8 7 6 5 6 6 7 5 6 6 7 7 8 8 7 8 9 14 15 15 14 13 11 10 9 8 7 6 4 3 1
11 14 14 14 13 13 12 11 11 12 13 12 12 10 9 9 5 6 7 5 6 4 4 6 8 8 8 8 8 15 15 16 16 15 14 12 11 10 8 7 5 4 2
12 11 14 14 14 13 12 12 11 12 10 13 14 13 10 10 8 8 7 6 5 5 6 8 5 9 9 8 11 17 11 16 16 16 15 14 13 11 10 8 7 5 4
9 11 12 14 14 14 13 12 11 13 12 13 13 13 12 10 9 9 8 8 9 9 9 9 8 9 9 8 13 11 9 16 17 17 16 15 13 12 11 10 8 7 6
10 10 12 13 13 13 14 13 12 12 13 13 11 12 13 10 9 9 9 9 10 11 10 5 8 6 9 9 14 11 10 16 17 17 16 15 14 13 12 11 9 8 7
12 12 13 13 13 13 13 13 14 13 15 14 13 14 15 12 10 9 9 9 9 9 12 5 2 4 8 9 8 8 7 8 8 15 16 15 15 14 13 12 10 9 8
12 13 12 12 13 13 13 14 15 15 15 16 15 14 15 10 13 10 9 10 10 9 9 9 3 4 6 8 7 7 6 6 5 12 16 16 15 14 13 12 11 10 9
11 11 12 13 13 13 13 14 14 14 15 15 14 14 13 12 13 10 10 10 8 7 7 6 4 3 2 4 6 5 6 5 6 9 14 15 15 14 13 13 12 11 9
10 11 12 12 12 11 12 12 12 13 13 13 12 12 12 12 13 11 9 10 7 6 5 4 4 4 3 4 5 6 6 6 5 5 9 10 12 13 14 13 12 11 10
9 9 9 10 10 9 9 10 10 11 12 11 10 10 11 12 13 11 8 8 8 6 5 5 5 4 5 5 7 6 6 5 4 5 5 5 5 5 7 11 11 12 12
7 7 8 8 9 8 10 12 11 9 9 10 9 8 7 8 10 11 11 10 9 8 8 6 6 7 7 7 5 6 6 5 5 6 6 6 5 6 5 5 10 13 13
6 6 6 7 8 8 9 10 12 9 8 8 8 6 5 4 6 5 6 7 7 9 9 7 7 8 7 9 10 9 8 6 4 5 6 5 5 6 5 7 14 14 13
4 4 5 5 5 5 6 8 9 8 7 6 6 6 6 5 5 6 4 4 3 3 5 4 5 5 5 8 9 8 7 5 4 3 4 4 4 4 4 4 12 14 13
3 3 2 3 4 4 4 6 6 4 4 4 3 4 5 5 7 9 6 5 4 2 3 5 5 6 8 12 11 7 7 6 3 3 3 3 3 2 2 3 7 12 13
3 3 2 2 3 3 3 4 5 3 3 3 2 2 4 5 7 9 6 6 6 4 5 5 5 6 6 10 13 8 8 6 4 4 5 5 3 3 2 2 2 3 5
Wind_Direction
162 160 160 160 161 150 146 138 131 129 125 126 129 132 130 114 87 52 15 28 37 52 74 81 87 94 93 93 90 88 83 81 77 74 71 69 66 65 62 58 55 53 50
170 170 174 179 182 174 164 159 159 150 146 139 142 143 140 125 109 85 46 28 35 43 60 77 85 96 98 103 98 95 91 87 83 79 75 72 69 66 64 60 56 52 49
178 178 181 190 194 180 169 158 155 140 148 151 161 154 146 148 141 132 99 54 32 37 47 71 87 102 106 110 107 102 99 95 90 85 80 76 71 67 65 61 56 51 48
183 182 188 197 189 176 174 173 166 164 177 176 174 170 160 162 165 158 135 112 74 43 42 63 75 99 123 124 120 116 111 107 101 93 87 81 75 70 65 61 56 52 47
190 188 194 196 183 181 186 182 177 172 182 187 185 183 182 188 187 169 166 158 142 118 80 69 65 64 124 145 144 139 134 127 117 109 102 93 84 77 70 64 57 51 45
195 194 197 194 183 185 192 186 185 182 178 169 155 170 203 205 192 188 185 175 169 159 142 116 76 50 95 152 169 166 159 151 145 138 128 115 103 90 79 66 58 49 41
197 198 201 195 191 198 199 189 178 183 188 152 133 158 291 210 203 202 187 184 191 186 174 169 159 146 152 175 190 186 183 178 171 166 160 151 135 113 92 73 60 48 39
200 202 204 202 199 200 200 194 183 179 186 173 160 159 242 269 232 208 194 199 200 190 195 195 188 186 184 187 210 197 197 194 188 183 182 178 167 150 126 95 67 48 36
205 205 205 204 202 202 208 204 195 192 197 197 187 170 186 223 225 220 213 208 202 201 204 200 204 200 194 195 203 204 199 200 198 196 194 191 189 179 167 138 90 53 32
208 208 207 206 206 207 211 207 203 202 194 202 208 217 208 172 179 221 230 217 209 213 210 207 207 207 202 199 203 201 198 198 198 198 200 198 198 196 190 184 158 65 24
208 210 210 209 211 212 213 208 204 205 207 207 200 190 208 216 202 203 233 218 215 221 214 210 208 208 205 202 203 206 201 199 198 198 201 201 201 202 202 203 198 205 339
210 211 212 213 214 214 214 212 210 210 213 214 211 202 191 193 201 206 225 220 220 217 209 209 211 210 205 204 206 204 203 202 200 199 200 201 203 203 206 208 209 214 251
213 213 210 214 216 218 215 211 211 215 214 214 217 219 218 220 202 199 218 225 225 217 202 215 215 208 206 204 207 205 207 205 203 202 201 202 204 203 206 211 215 219 238
217 210 208 214 217 217 215 212 215 219 217 220 224 224 225 227 219 214 213 211 231 230 222 227 212 209 207 202 206 201 209 207 207 205 204 204 205 205 206 210 214 219 231
213 206 206 212 216 216 216 213 219 220 219 222 226 225 228 230 225 225 221 215 226 243 241 212 207 207 204 199 201 199 199 204 206 208 208 206 206 208 209 212 215 219 231
209 204 207 211 214 216 216 216 221 222 223 225 226 228 230 231 229 226 225 225 226 240 255 215 206 191 191 198 200 196 200 199 203 207 208 208 209 211 212 215 217 221 230
210 211 211 212 214 216 216 218 223 221 225 229 227 228 232 229 230 228 226 227 228 229 248 249 179 164 179 192 193 192 188 196 200 206 208 209 210 211 214 217 220 222 229
213 213 212 214 216 218 217 219 223 225 227 229 230 230 233 229 231 231 230 231 231 226 234 245 196 173 185 188 180 183 185 192 193 205 210 212 211 213 216 219 221 223 228
215 212 212 216 219 219 220 221 223 226 228 231 230 230 232 227 232 230 229 232 231 225 224 228 201 160 151 160 161 173 182 186 195 203 209 212 212 215 218 220 220 222 225
214 214 215 218 219 220 221 221 222 226 229 231 231 230 230 227 230 227 227 228 223 219 208 205 182 154 153 153 162 176 187 188 193 193 207 211 213 216 219 218 219 220 224
213 215 216 218 219 220 221 219 221 225 229 231 231 230 230 228 227 224 222 219 210 213 200 196 190 166 171 170 188 179 187 170 181 184 193 203 204 209 211 219 218 220 224
209 210 214 216 219 221 220 216 217 224 226 229 231 230 228 225 227 225 225 220 207 206 204 201 200 198 196 185 166 169 164 163 196 188 188 201 190 205 207 211 220 223 225
202 209 215 215 222 223 218 216 217 223 226 228 227 223 220 213 212 212 212 215 218 213 204 196 199 201 188 182 171 173 181 180 183 163 171 195 191 213 204 218 224 227 227
194 204 211 216 224 227 219 217 215 221 228 227 219 211 208 203 194 187 183 186 195 203 202 199 203 194 180 169 174 172 165 133 89 137 164 187 187 210 202 213 229 228 229
186 189 191 202 215 226 214 213 205 204 214 219 211 197 192 194 190 180 173 177 175 172 160 154 156 156 157 158 154 138 143 147 160 180 179 178 177 185 201 218 229 232 232
180 173 184 191 197 211 199 197 191 189 202 204 191 184 190 189 184 177 172 172 180 173 146 132 130 135 140 155 161 165 163 164 155 181 181 176 163 153 214 225 213 225 235